| time (UTC) | temp C | wind direction | speed KPH | gust KPH | rain 1hr cm | rain 24hr cm | rain mn cm | humidity % | barometer mb |
| 20260504050559 | 8 | 102 | 0.0 | 6.4 | 0.00 | 0.00 | 0.00 | 59 | 1014.7 |
| 20260504045553 | 8 | 289 | 0.0 | 4.8 | 0.00 | 0.00 | 0.00 | 53 | 1014.5 |
| 20260504045048 | 8 | 138 | 3.2 | 4.8 | 0.00 | 0.00 | 0.00 | 54 | 1014.8 |
| 20260504044546 | 8 | 260 | 1.6 | 6.4 | 0.00 | 0.00 | 0.00 | 53 | 1014.7 |
| 20260504044043 | 8 | 82 | 3.2 | 4.8 | 0.00 | 0.00 | 0.00 | 57 | 1014.7 |
| 20260504043540 | 8 | 108 | 1.6 | 6.4 | 0.00 | 0.00 | 0.00 | 52 | 1014.8 |
| 20260504043037 | 8 | 267 | 0.0 | 4.8 | 0.00 | 0.00 | 0.00 | 58 | 1014.7 |
| 20260504042534 | 8 | 284 | 3.2 | 4.8 | 0.00 | 0.00 | 0.00 | 55 | 1014.5 |
| 20260504042031 | 8 | 111 | 3.2 | 3.2 | 0.00 | 0.00 | 0.00 | 57 | 1014.7 |
| 20260504041527 | 8 | 254 | 3.2 | 6.4 | 0.00 | 0.00 | 0.00 | 54 | 1014.8 |
| 20260504041023 | 8 | 48 | 3.2 | 4.8 | 0.00 | 0.00 | 0.00 | 57 | 1014.7 |
| 20260504040521 | 9 | 283 | 4.8 | 6.4 | 0.00 | 0.00 | 0.00 | 51 | 1014.7 |
| 20260504040018 | 9 | 281 | 1.6 | 4.8 | 0.00 | 0.00 | 0.00 | 53 | 1014.6 |
| 20260504035515 | 9 | 266 | 4.8 | 4.8 | 0.00 | 0.00 | 0.00 | 52 | 1014.5 |
| 20260504035011 | 9 | 253 | 3.2 | 4.8 | 0.00 | 0.00 | 0.00 | 50 | 1014.6 |
| 20260504034509 | 10 | 289 | 3.2 | 12.9 | 0.00 | 0.00 | 0.00 | 51 | 1014.6 |
| 20260504034005 | 9 | 226 | 3.2 | 4.8 | 0.00 | 0.00 | 0.00 | 50 | 1014.6 |
| 20260504033503 | 9 | 266 | 1.6 | 3.2 | 0.00 | 0.00 | 0.00 | 50 | 1014.6 |
| 20260504033000 | 9 | 256 | 6.4 | 8.0 | 0.00 | 0.00 | 0.00 | 50 | 1014.8 |
| 20260504032457 | 8 | 269 | 1.6 | 4.8 | 0.00 | 0.00 | 0.00 | 53 | 1014.6 |
| 20260504031954 | 8 | 215 | 3.2 | 3.2 | 0.00 | 0.00 | 0.00 | 57 | 1014.6 |
| 20260504031450 | 9 | 209 | 1.6 | 4.8 | 0.00 | 0.00 | 0.00 | 52 | 1014.5 |
| 20260504030947 | 9 | 230 | 1.6 | 4.8 | 0.00 | 0.00 | 0.00 | 50 | 1014.6 |
| 20260504030444 | 10 | 281 | 6.4 | 6.4 | 0.00 | 0.00 | 0.00 | 50 | 1014.4 |
| 20260504025940 | 10 | 294 | 1.6 | 6.4 | 0.00 | 0.00 | 0.00 | 52 | 1014.4 |
| 20260504025437 | 10 | 158 | 6.4 | 6.4 | 0.00 | 0.00 | 0.00 | 50 | 1014.5 |
| 20260504024934 | 10 | 205 | 0.0 | 4.8 | 0.00 | 0.00 | 0.00 | 51 | 1014.5 |
| 20260504024431 | 10 | 204 | 1.6 | 4.8 | 0.00 | 0.00 | 0.00 | 49 | 1014.7 |
| 20260504023928 | 10 | 236 | 6.4 | 6.4 | 0.00 | 0.00 | 0.00 | 49 | 1014.7 |
| 20260504023425 | 10 | 33 | 3.2 | 6.4 | 0.00 | 0.00 | 0.00 | 51 | 1014.6 |
| 20260504022920 | 10 | 320 | 3.2 | 6.4 | 0.00 | 0.00 | 0.00 | 49 | 1014.6 |
| 20260504022417 | 10 | 304 | 3.2 | 8.0 | 0.00 | 0.00 | 0.00 | 50 | 1014.7 |
| 20260504021914 | 10 | 257 | 0.0 | 3.2 | 0.00 | 0.00 | 0.00 | 48 | 1014.6 |
| 20260504021411 | 10 | 264 | 1.6 | 4.8 | 0.00 | 0.00 | 0.00 | 48 | 1014.6 |
| 20260504020908 | 10 | 334 | 1.6 | 4.8 | 0.00 | 0.00 | 0.00 | 46 | 1014.5 |
| 20260504020404 | 10 | 243 | 1.6 | 4.8 | 0.00 | 0.00 | 0.00 | 47 | 1014.6 |
| 20260504015901 | 10 | 313 | 3.2 | 6.4 | 0.00 | 0.00 | 0.00 | 46 | 1014.7 |
| 20260504015357 | 10 | 168 | 3.2 | 6.4 | 0.00 | 0.00 | 0.00 | 47 | 1014.4 |
| 20260504014853 | 10 | 267 | 0.0 | 3.2 | 0.00 | 0.00 | 0.00 | 48 | 1014.6 |
| 20260504014349 | 10 | 238 | 1.6 | 4.8 | 0.00 | 0.00 | 0.00 | 47 | 1014.5 |
| 20260504013847 | 10 | 243 | 3.2 | 4.8 | 0.00 | 0.00 | 0.00 | 47 | 1014.5 |
| 20260504013345 | 10 | 232 | 0.0 | 4.8 | 0.00 | 0.00 | 0.00 | 47 | 1014.5 |
| 20260504012841 | 10 | 235 | 0.0 | 3.2 | 0.00 | 0.00 | 0.00 | 47 | 1014.5 |
| 20260504012339 | 10 | 219 | 0.0 | 3.2 | 0.00 | 0.00 | 0.00 | 48 | 1014.5 |
| 20260504011836 | 10 | 193 | 1.6 | 3.2 | 0.00 | 0.00 | 0.00 | 48 | 1014.6 |
| 20260504011332 | 10 | 231 | 1.6 | 1.6 | 0.00 | 0.00 | 0.00 | 49 | 1014.4 |
| 20260504010829 | 10 | 246 | 1.6 | 3.2 | 0.00 | 0.00 | 0.00 | 49 | 1014.4 |
| 20260504010324 | 10 | 256 | 0.0 | 1.6 | 0.00 | 0.00 | 0.00 | 50 | 1014.5 |
| 20260504005821 | 10 | 222 | 0.0 | 3.2 | 0.00 | 0.00 | 0.00 | 48 | 1014.4 |
| 20260504005318 | 10 | 229 | 0.0 | 3.2 | 0.00 | 0.00 | 0.00 | 45 | 1014.3 |
| 20260504004816 | 11 | 245 | 3.2 | 3.2 | 0.00 | 0.00 | 0.00 | 45 | 1014.5 |
| 20260504004313 | 11 | 218 | 1.6 | 3.2 | 0.00 | 0.00 | 0.00 | 45 | 1014.2 |
| 20260504003809 | 11 | 230 | 3.2 | 3.2 | 0.00 | 0.00 | 0.00 | 45 | 1014.2 |
| 20260504003307 | 11 | 249 | 1.6 | 3.2 | 0.00 | 0.00 | 0.00 | 44 | 1014.2 |
| 20260504002803 | 11 | 265 | 1.6 | 3.2 | 0.00 | 0.00 | 0.00 | 45 | 1014.1 |
| 20260504002300 | 11 | 251 | 3.2 | 8.0 | 0.00 | 0.00 | 0.00 | 45 | 1014.1 |
| 20260504001758 | 11 | 227 | 0.0 | 3.2 | 0.00 | 0.00 | 0.00 | 44 | 1014.2 |
| 20260504001254 | 11 | 268 | 3.2 | 3.2 | 0.00 | 0.00 | 0.00 | 44 | 1014.0 |
| 20260504000751 | 11 | 252 | 1.6 | 6.4 | 0.00 | 0.00 | 0.00 | 43 | 1014.1 |
| 20260504000248 | 11 | 222 | 1.6 | 3.2 | 0.00 | 0.00 | 0.00 | 43 | 1014.0 |
| 20260503235746 | 12 | 222 | 0.0 | 4.8 | 0.00 | 0.00 | 0.00 | 43 | 1014.3 |
| 20260503235243 | 12 | 52 | 0.0 | 3.2 | 0.00 | 0.00 | 0.00 | 43 | 1014.0 |
| 20260503234741 | 12 | 243 | 0.0 | 4.8 | 0.00 | 0.00 | 0.00 | 43 | 1014.1 |
| 20260503234239 | 12 | 215 | 3.2 | 6.4 | 0.00 | 0.00 | 0.00 | 42 | 1014.2 |
| 20260503233735 | 12 | 219 | 3.2 | 3.2 | 0.00 | 0.00 | 0.00 | 44 | 1014.1 |
| 20260503233231 | 12 | 229 | 3.2 | 4.8 | 0.00 | 0.00 | 0.00 | 40 | 1014.0 |
| 20260503232728 | 12 | 221 | 4.8 | 8.0 | 0.00 | 0.00 | 0.00 | 41 | 1013.8 |
| 20260503232226 | 12 | 261 | 4.8 | 4.8 | 0.00 | 0.00 | 0.00 | 42 | 1013.8 |
| 20260503231724 | 13 | 192 | 3.2 | 4.8 | 0.00 | 0.00 | 0.00 | 42 | 1013.8 |
| 20260503231220 | 13 | 220 | 1.6 | 6.4 | 0.00 | 0.00 | 0.00 | 41 | 1013.9 |
| 20260503230716 | 13 | 252 | 3.2 | 9.7 | 0.00 | 0.00 | 0.00 | 40 | 1014.0 |
| 20260503230214 | 13 | 231 | 0.0 | 4.8 | 0.00 | 0.00 | 0.00 | 40 | 1013.9 |
| 20260503225711 | 13 | 141 | 1.6 | 3.2 | 0.00 | 0.00 | 0.00 | 40 | 1013.9 |
| 20260503225211 | 12 | 232 | 1.6 | 4.8 | 0.00 | 0.00 | 0.00 | 39 | 1014.0 |
| 20260503224709 | 13 | 230 | 0.0 | 8.0 | 0.00 | 0.00 | 0.00 | 44 | 1013.8 |
| 20260503224207 | 13 | 254 | 3.2 | 11.3 | 0.00 | 0.00 | 0.00 | 39 | 1013.8 |
| 20260503223704 | 13 | 104 | 6.4 | 9.7 | 0.00 | 0.00 | 0.00 | 39 | 1013.8 |
| 20260503223201 | 13 | 243 | 4.8 | 8.0 | 0.00 | 0.00 | 0.00 | 40 | 1013.8 |
| 20260503222658 | 13 | 248 | 3.2 | 8.0 | 0.00 | 0.00 | 0.00 | 38 | 1013.9 |
| 20260503222155 | 13 | 263 | 3.2 | 9.7 | 0.00 | 0.00 | 0.00 | 39 | 1013.9 |
| 20260503221654 | 13 | 238 | 1.6 | 9.7 | 0.00 | 0.00 | 0.00 | 41 | 1013.8 |
| 20260503221150 | 13 | 214 | 0.0 | 6.4 | 0.00 | 0.00 | 0.00 | 39 | 1013.9 |
| 20260503220647 | 13 | 225 | 6.4 | 6.4 | 0.00 | 0.00 | 0.00 | 39 | 1013.9 |
| 20260503220143 | 13 | 285 | 1.6 | 3.2 | 0.00 | 0.00 | 0.00 | 39 | 1014.0 |
| 20260503215641 | 13 | 130 | 4.8 | 6.4 | 0.00 | 0.00 | 0.00 | 38 | 1013.8 |
| 20260503215137 | 13 | 282 | 0.0 | 8.0 | 0.00 | 0.00 | 0.00 | 38 | 1013.9 |
| 20260503214637 | 13 | 180 | 4.8 | 16.1 | 0.00 | 0.00 | 0.00 | 38 | 1013.7 |
| 20260503214132 | 13 | 238 | 4.8 | 6.4 | 0.00 | 0.00 | 0.00 | 36 | 1013.9 |
| 20260503213632 | 13 | 238 | 3.2 | 9.7 | 0.00 | 0.00 | 0.00 | 38 | 1013.9 |
| 20260503213128 | 13 | 262 | 4.8 | 6.4 | 0.00 | 0.00 | 0.00 | 39 | 1014.0 |
| 20260503212625 | 13 | 256 | 6.4 | 8.0 | 0.00 | 0.00 | 0.00 | 37 | 1013.7 |
| 20260503212122 | 13 | 116 | 0.0 | 8.0 | 0.00 | 0.00 | 0.00 | 37 | 1013.8 |
| 20260503211620 | 13 | 55 | 3.2 | 8.0 | 0.00 | 0.00 | 0.00 | 38 | 1013.9 |
| 20260503211115 | 13 | 266 | 3.2 | 9.7 | 0.00 | 0.00 | 0.00 | 37 | 1013.8 |
| 20260503210612 | 13 | 242 | 3.2 | 6.4 | 0.00 | 0.00 | 0.00 | 40 | 1013.8 |
| 20260503210109 | 13 | 232 | 0.0 | 6.4 | 0.00 | 0.00 | 0.00 | 42 | 1013.8 |
| 20260503205605 | 13 | 229 | 6.4 | 8.0 | 0.00 | 0.00 | 0.00 | 37 | 1013.8 |
| 20260503205101 | 14 | 228 | 4.8 | 9.7 | 0.00 | 0.00 | 0.00 | 37 | 1013.7 |
| 20260503204558 | 16 | 239 | 6.4 | 9.7 | 0.00 | 0.00 | 0.00 | 34 | 1013.8 |
| 20260503204055 | 15 | 75 | 1.6 | 4.8 | 0.00 | 0.00 | 0.00 | 36 | 1013.9 |
| 20260503203552 | 13 | 225 | 6.4 | 9.7 | 0.00 | 0.00 | 0.00 | 37 | 1014.1 |
| 20260503203049 | 13 | 229 | 3.2 | 6.4 | 0.00 | 0.00 | 0.00 | 38 | 1013.8 |
| 20260503202547 | 13 | 256 | 6.4 | 9.7 | 0.00 | 0.00 | 0.00 | 38 | 1013.7 |
| 20260503202045 | 15 | 235 | 3.2 | 12.9 | 0.00 | 0.00 | 0.00 | 33 | 1014.0 |
| 20260503201543 | 15 | 245 | 6.4 | 6.4 | 0.00 | 0.00 | 0.00 | 37 | 1014.1 |
| 20260503201040 | 15 | 230 | 3.2 | 12.9 | 0.00 | 0.00 | 0.00 | 36 | 1014.1 |
| 20260503200536 | 15 | 226 | 3.2 | 8.0 | 0.00 | 0.00 | 0.00 | 36 | 1013.9 |
| 20260503200033 | 13 | 170 | 0.0 | 4.8 | 0.00 | 0.00 | 0.00 | 37 | 1014.0 |
| 20260503195530 | 13 | 244 | 12.9 | 14.5 | 0.00 | 0.00 | 0.00 | 36 | 1014.2 |
| 20260503195027 | 14 | 146 | 1.6 | 6.4 | 0.00 | 0.00 | 0.00 | 36 | 1014.1 |
| 20260503194524 | 13 | 151 | 1.6 | 8.0 | 0.00 | 0.00 | 0.00 | 35 | 1014.3 |
| 20260503194024 | 14 | 121 | 4.8 | 8.0 | 0.00 | 0.00 | 0.00 | 38 | 1014.4 |
| 20260503193521 | 15 | 177 | 3.2 | 8.0 | 0.00 | 0.00 | 0.00 | 38 | 1014.3 |
| 20260503193016 | 15 | 111 | 6.4 | 8.0 | 0.00 | 0.00 | 0.00 | 36 | 1014.5 |
| 20260503192512 | 13 | 232 | 4.8 | 4.8 | 0.00 | 0.00 | 0.00 | 37 | 1014.3 |
| 20260503192008 | 13 | 228 | 3.2 | 8.0 | 0.00 | 0.00 | 0.00 | 37 | 1014.6 |
| 20260503191505 | 14 | 213 | 8.0 | 9.7 | 0.00 | 0.00 | 0.00 | 34 | 1014.7 |
| 20260503191002 | 13 | 266 | 3.2 | 9.7 | 0.00 | 0.00 | 0.00 | 35 | 1014.7 |
| 20260503190459 | 13 | 256 | 4.8 | 8.0 | 0.00 | 0.00 | 0.00 | 38 | 1014.8 |
| 20260503185956 | 13 | 126 | 3.2 | 4.8 | 0.00 | 0.00 | 0.00 | 37 | 1014.7 |
| 20260503185452 | 13 | 115 | 6.4 | 6.4 | 0.00 | 0.00 | 0.00 | 39 | 1015.0 |
| 20260503184952 | 13 | 238 | 3.2 | 6.4 | 0.00 | 0.00 | 0.00 | 37 | 1015.0 |
| 20260503184448 | 13 | 268 | 6.4 | 12.9 | 0.00 | 0.00 | 0.00 | 36 | 1015.1 |
| 20260503183944 | 13 | 260 | 4.8 | 8.0 | 0.00 | 0.00 | 0.00 | 39 | 1015.0 |
| 20260503183441 | 15 | 232 | 4.8 | 11.3 | 0.00 | 0.00 | 0.00 | 35 | 1015.2 |
| 20260503182938 | 13 | 224 | 1.6 | 11.3 | 0.00 | 0.00 | 0.00 | 36 | 1015.1 |
| 20260503182437 | 13 | 265 | 6.4 | 6.4 | 0.00 | 0.00 | 0.00 | 38 | 1015.1 |
| 20260503181934 | 13 | 286 | 0.0 | 6.4 | 0.00 | 0.00 | 0.00 | 38 | 1015.2 |
| 20260503181431 | 14 | 220 | 4.8 | 9.7 | 0.00 | 0.00 | 0.00 | 38 | 1015.3 |
| 20260503180927 | 14 | 289 | 3.2 | 9.7 | 0.00 | 0.00 | 0.00 | 36 | 1015.3 |
| 20260503180427 | 13 | 100 | 0.0 | 11.3 | 0.00 | 0.00 | 0.00 | 38 | 1015.2 |
| 20260503175922 | 13 | 257 | 0.0 | 8.0 | 0.00 | 0.00 | 0.00 | 42 | 1015.2 |
| 20260503175421 | 13 | 116 | 3.2 | 4.8 | 0.00 | 0.00 | 0.00 | 38 | 1015.3 |
| 20260503174916 | 13 | 230 | 1.6 | 9.7 | 0.00 | 0.00 | 0.00 | 37 | 1015.3 |
| 20260503174415 | 15 | 125 | 3.2 | 6.4 | 0.00 | 0.00 | 0.00 | 39 | 1015.4 |
| 20260503173914 | 13 | 265 | 8.0 | 9.7 | 0.00 | 0.00 | 0.00 | 36 | 1015.4 |
| 20260503173411 | 13 | 214 | 4.8 | 4.8 | 0.00 | 0.00 | 0.00 | 40 | 1015.5 |
| 20260503172908 | 13 | 156 | 3.2 | 6.4 | 0.00 | 0.00 | 0.00 | 36 | 1015.3 |
| 20260503172405 | 13 | 81 | 8.0 | 8.0 | 0.00 | 0.00 | 0.00 | 37 | 1015.5 |
| 20260503171901 | 13 | 258 | 3.2 | 9.7 | 0.00 | 0.00 | 0.00 | 38 | 1015.5 |
| 20260503171358 | 14 | 273 | 3.2 | 9.7 | 0.00 | 0.00 | 0.00 | 39 | 1015.5 |
| 20260503170855 | 14 | 246 | 6.4 | 9.7 | 0.00 | 0.00 | 0.00 | 37 | 1015.6 |
| 20260503170352 | 14 | 12 | 4.8 | 6.4 | 0.00 | 0.00 | 0.00 | 39 | 1015.4 |
| 20260503150744 | 9 | 264 | 4.8 | 6.4 | 0.00 | 0.00 | 0.00 | 44 | 1017.0 |
| 20260503150240 | 8 | 245 | 0.0 | 12.9 | 0.00 | 0.00 | 0.00 | 45 | 1016.8 |
| 20260503140204 | 9 | 205 | 3.2 | 4.8 | 0.00 | 0.00 | 0.00 | 45 | 1016.9 |
| 20260503131134 | 6 | 44 | 1.6 | 4.8 | 0.00 | 0.00 | 0.00 | 60 | 1017.3 |
| 20260503130632 | 6 | 136 | 3.2 | 4.8 | 0.00 | 0.00 | 0.00 | 61 | 1017.4 |
| 20260503130129 | 6 | 235 | 3.2 | 6.4 | 0.00 | 0.00 | 0.00 | 62 | 1017.5 |
| 20260503110516 | 2 | 220 | 0.0 | 8.0 | 0.00 | 0.00 | 0.00 | 76 | 1016.7 |
| 20260503090401 | 2 | 245 | 1.6 | 3.2 | 0.00 | 0.00 | 0.00 | 73 | 1015.8 |
| 20260503081328 | 1 | 276 | 3.2 | 3.2 | 0.00 | 0.00 | 0.00 | 73 | 1015.4 |
| 20260503080825 | 2 | 239 | 3.2 | 3.2 | 0.00 | 0.00 | 0.00 | 73 | 1015.5 |
| 20260503080322 | 2 | 220 | 1.6 | 4.8 | 0.00 | 0.00 | 0.00 | 73 | 1015.5 |
| 20260503072753 | 3 | 220 | 0.0 | 3.2 | 0.00 | 0.00 | 0.00 | 69 | 1015.4 |
| 20260503072250 | 3 | 324 | 1.6 | 3.2 | 0.00 | 0.00 | 0.00 | 68 | 1015.5 |
| 20260503071746 | 3 | 107 | 0.0 | 4.8 | 0.00 | 0.00 | 0.00 | 67 | 1015.4 |
| 20260503071243 | 3 | 173 | 0.0 | 4.8 | 0.00 | 0.00 | 0.00 | 68 | 1015.4 |
| 20260503070739 | 3 | 154 | 1.6 | 6.4 | 0.00 | 0.00 | 0.00 | 68 | 1015.3 |
| 20260503070237 | 3 | 98 | 3.2 | 3.2 | 0.00 | 0.00 | 0.00 | 68 | 1015.3 |
| 20260503060202 | 3 | 171 | 0.0 | 3.2 | 0.00 | 0.00 | 0.00 | 67 | 1015.4 |
| 20260503054649 | 3 | 185 | 1.6 | 3.2 | 0.00 | 0.00 | 0.00 | 64 | 1015.3 |
| 20260503054146 | 3 | 356 | 0.0 | 4.8 | 0.00 | 0.00 | 0.00 | 63 | 1015.3 |
| 20260503053644 | 3 | 118 | 4.8 | 4.8 | 0.00 | 0.00 | 0.00 | 64 | 1015.4 |